| time (UTC) | temp F | wind direction | speed knots | gust knots | rain 1hr in | rain 24hr in | rain mn in | humidity % | barometer mb |
| 20260902224518 | 70 | 34 | 0.0 | 0.9 | 0.00 | 0.12 | 0.12 | 93 | 1011.1 |
| 20260902223019 | 71 | 34 | 0.0 | 0.0 | 0.00 | 0.12 | 0.12 | 93 | 1010.7 |
| 20260902221519 | 71 | 34 | 0.0 | 1.7 | 0.12 | 0.12 | 0.12 | 93 | 1010.0 |
| 20260902220018 | 70 | 34 | 0.0 | 0.9 | 0.12 | 0.12 | 0.12 | 93 | 1010.3 |
| 20260902214526 | 69 | 34 | 0.0 | 2.6 | 0.12 | 0.12 | 0.12 | 92 | 1010.7 |
| 20260902213018 | 69 | 359 | 0.0 | 6.1 | 0.12 | 0.12 | 0.12 | 89 | 1009.8 |
| 20260902211519 | 70 | 309 | 2.6 | 11.3 | 0.00 | 0.00 | 0.00 | 86 | 1010.7 |
| 20260902210031 | 73 | 84 | 5.2 | 27.8 | 0.00 | 0.00 | 0.00 | 75 | 1010.6 |
| 20260902204519 | 88 | 133 | 0.0 | 0.9 | 0.00 | 0.00 | 0.00 | 71 | 1009.9 |
| 20260902203018 | 90 | 159 | 1.7 | 10.4 | 0.00 | 0.00 | 0.00 | 65 | 1009.1 |
| 20260902201550 | 91 | 355 | 0.9 | 4.3 | 0.00 | 0.00 | 0.00 | 66 | 1009.4 |
| 20260902200051 | 91 | 171 | 0.0 | 2.6 | 0.00 | 0.00 | 0.00 | 67 | 1009.5 |
| 20260902194551 | 90 | 136 | 0.9 | 5.2 | 0.00 | 0.00 | 0.00 | 70 | 1009.7 |
| 20260902193051 | 89 | 129 | 1.7 | 7.0 | 0.00 | 0.00 | 0.00 | 70 | 1010.0 |
| 20260902191555 | 90 | 297 | 0.9 | 5.2 | 0.00 | 0.00 | 0.00 | 72 | 1010.2 |
| 20260902190055 | 90 | 167 | 1.7 | 7.0 | 0.00 | 0.00 | 0.00 | 71 | 1010.2 |
| 20260902184609 | 89 | 193 | 0.9 | 4.3 | 0.00 | 0.00 | 0.00 | 72 | 1010.3 |
| 20260902183100 | 87 | 290 | 0.0 | 3.5 | 0.00 | 0.00 | 0.00 | 73 | 1010.4 |
| 20260902181551 | 87 | 290 | 0.9 | 2.6 | 0.00 | 0.00 | 0.00 | 73 | 1010.5 |
| 20260902180051 | 86 | 290 | 0.0 | 2.6 | 0.00 | 0.00 | 0.00 | 74 | 1010.6 |
| 20260902174551 | 86 | 290 | 0.0 | 2.6 | 0.00 | 0.00 | 0.00 | 73 | 1011.0 |
| 20260902173051 | 86 | 290 | 0.0 | 3.5 | 0.00 | 0.00 | 0.00 | 73 | 1011.5 |
| 20260902171551 | 86 | 290 | 0.0 | 2.6 | 0.00 | 0.00 | 0.00 | 74 | 1011.9 |
| 20260902170053 | 82 | 290 | 0.9 | 2.6 | 0.00 | 0.00 | 0.00 | 78 | 1012.3 |
| 20260902164551 | 82 | 274 | 0.9 | 2.6 | 0.00 | 0.00 | 0.00 | 78 | 1012.6 |
| 20260902163058 | 85 | 274 | 0.0 | 2.6 | 0.00 | 0.00 | 0.00 | 73 | 1012.2 |
| 20260902161551 | 85 | 158 | 0.0 | 3.5 | 0.00 | 0.00 | 0.00 | 74 | 1012.4 |
| 20260902160054 | 84 | 154 | 0.0 | 3.5 | 0.00 | 0.00 | 0.00 | 78 | 1012.3 |
| 20260902154551 | 84 | 240 | 0.0 | 1.7 | 0.00 | 0.00 | 0.00 | 80 | 1012.3 |
| 20260902153052 | 83 | 240 | 0.0 | 1.7 | 0.00 | 0.00 | 0.00 | 80 | 1012.3 |
| 20260902151600 | 84 | 290 | 0.0 | 3.5 | 0.00 | 0.00 | 0.00 | 81 | 1012.1 |
| 20260902150052 | 83 | 131 | 0.0 | 5.2 | 0.00 | 0.00 | 0.00 | 82 | 1011.9 |
| 20260902144551 | 82 | 143 | 0.9 | 4.3 | 0.00 | 0.00 | 0.00 | 85 | 1012.1 |
| 20260902143056 | 81 | 163 | 0.0 | 3.5 | 0.00 | 0.00 | 0.00 | 87 | 1012.2 |
| 20260902141551 | 80 | 155 | 0.0 | 7.0 | 0.00 | 0.00 | 0.00 | 89 | 1012.2 |
| 20260902140052 | 79 | 142 | 0.9 | 3.5 | 0.00 | 0.00 | 0.00 | 90 | 1012.2 |
| 20260902134604 | 78 | 164 | 0.0 | 5.2 | 0.00 | 0.00 | 0.00 | 92 | 1012.1 |
| 20260902133056 | 77 | 162 | 0.9 | 3.5 | 0.00 | 0.00 | 0.00 | 92 | 1012.1 |
| 20260902131552 | 77 | 162 | 0.0 | 2.6 | 0.00 | 0.00 | 0.00 | 93 | 1012.0 |
| 20260902130057 | 76 | 162 | 0.9 | 3.5 | 0.00 | 0.00 | 0.00 | 93 | 1012.1 |
| 20260902124556 | 76 | 162 | 0.0 | 0.9 | 0.00 | 0.00 | 0.00 | 93 | 1011.7 |
| 20260902123052 | 76 | 162 | 0.0 | 2.6 | 0.00 | 0.00 | 0.00 | 93 | 1011.7 |
| 20260902121556 | 76 | 162 | 0.0 | 2.6 | 0.00 | 0.00 | 0.00 | 92 | 1011.8 |
| 20260902120052 | 76 | 162 | 0.9 | 3.5 | 0.00 | 0.00 | 0.00 | 92 | 1011.6 |
| 20260902114557 | 76 | 162 | 0.9 | 3.5 | 0.00 | 0.00 | 0.00 | 92 | 1011.8 |
| 20260902113058 | 76 | 162 | 0.0 | 3.5 | 0.00 | 0.00 | 0.00 | 91 | 1012.0 |
| 20260902111552 | 75 | 165 | 0.0 | 0.0 | 0.00 | 0.00 | 0.00 | 91 | 1011.9 |
| 20260902110052 | 75 | 165 | 0.0 | 0.0 | 0.00 | 0.00 | 0.00 | 91 | 1011.5 |
| 20260902104556 | 75 | 165 | 0.0 | 0.0 | 0.00 | 0.00 | 0.00 | 91 | 1011.4 |
| 20260902103102 | 75 | 165 | 0.0 | 0.0 | 0.00 | 0.00 | 0.00 | 90 | 1011.2 |
| 20260902101553 | 76 | 165 | 0.0 | 0.0 | 0.00 | 0.00 | 0.00 | 89 | 1010.9 |
| 20260902100107 | 76 | 165 | 0.0 | 1.7 | 0.00 | 0.00 | 0.00 | 89 | 1011.1 |
| 20260902094553 | 76 | 165 | 0.0 | 1.7 | 0.00 | 0.00 | 0.00 | 90 | 1011.1 |
| 20260902093053 | 75 | 165 | 0.0 | 2.6 | 0.00 | 0.00 | 0.00 | 91 | 1011.2 |
| 20260902091607 | 75 | 165 | 0.0 | 2.6 | 0.00 | 0.00 | 0.00 | 92 | 1011.2 |
| 20260902090053 | 75 | 161 | 0.0 | 1.7 | 0.00 | 0.00 | 0.00 | 92 | 1011.3 |
| 20260902084553 | 76 | 161 | 0.0 | 2.6 | 0.00 | 0.00 | 0.00 | 91 | 1011.2 |
| 20260902083053 | 76 | 161 | 0.0 | 4.3 | 0.00 | 0.00 | 0.00 | 92 | 1011.3 |
| 20260902081553 | 75 | 145 | 0.0 | 1.7 | 0.00 | 0.00 | 0.00 | 93 | 1011.1 |
| 20260902080106 | 75 | 145 | 0.9 | 2.6 | 0.00 | 0.00 | 0.00 | 93 | 1011.3 |
| 20260902074554 | 75 | 145 | 0.0 | 1.7 | 0.00 | 0.00 | 0.00 | 92 | 1011.2 |
| 20260902073103 | 75 | 145 | 0.0 | 3.5 | 0.00 | 0.00 | 0.00 | 92 | 1011.1 |
| 20260902071609 | 75 | 145 | 0.0 | 2.6 | 0.00 | 0.00 | 0.00 | 93 | 1011.3 |
| 20260902070053 | 75 | 145 | 0.0 | 1.7 | 0.00 | 0.00 | 0.00 | 93 | 1011.4 |
| 20260902064554 | 75 | 145 | 0.0 | 3.5 | 0.00 | 0.00 | 0.00 | 94 | 1011.5 |
| 20260902063057 | 75 | 145 | 0.9 | 2.6 | 0.00 | 0.00 | 0.00 | 95 | 1011.5 |
| 20260902061607 | 74 | 145 | 0.0 | 2.6 | 0.00 | 0.00 | 0.00 | 95 | 1011.7 |
| 20260902060055 | 74 | 145 | 0.0 | 1.7 | 0.00 | 0.00 | 0.00 | 95 | 1011.9 |
| 20260902054554 | 74 | 145 | 0.0 | 0.0 | 0.00 | 0.00 | 0.00 | 95 | 1012.0 |
| 20260902053055 | 74 | 145 | 0.0 | 0.9 | 0.00 | 0.00 | 0.00 | 95 | 1011.9 |
| 20260902051554 | 75 | 145 | 0.0 | 0.0 | 0.00 | 0.00 | 0.00 | 95 | 1011.9 |
| 20260902050054 | 75 | 145 | 0.0 | 1.7 | 0.00 | 0.00 | 0.00 | 95 | 1012.1 |
| 20260902044554 | 75 | 145 | 0.0 | 0.0 | 0.00 | 0.00 | 0.00 | 95 | 1012.0 |
| 20260902043056 | 76 | 145 | 0.0 | 2.6 | 0.00 | 0.00 | 0.00 | 94 | 1011.8 |
| 20260902041554 | 76 | 145 | 0.0 | 0.0 | 0.00 | 0.00 | 0.00 | 94 | 1011.7 |
| 20260902040057 | 77 | 145 | 0.0 | 2.6 | 0.00 | 0.00 | 0.00 | 94 | 1011.7 |
| 20260902034554 | 77 | 176 | 0.0 | 3.5 | 0.00 | 0.00 | 0.00 | 94 | 1011.6 |
| 20260902033054 | 77 | 176 | 0.0 | 3.5 | 0.00 | 0.00 | 0.00 | 94 | 1011.6 |
| 20260902031555 | 77 | 207 | 0.9 | 2.6 | 0.00 | 0.00 | 0.00 | 94 | 1011.7 |
| 20260902030054 | 77 | 324 | 0.0 | 0.9 | 0.00 | 0.00 | 0.00 | 95 | 1011.6 |
| 20260902024555 | 77 | 323 | 0.0 | 0.0 | 0.00 | 0.00 | 0.00 | 95 | 1011.7 |
| 20260902023059 | 77 | 324 | 0.0 | 0.0 | 0.00 | 0.00 | 0.00 | 95 | 1011.7 |
| 20260902021558 | 77 | 323 | 0.0 | 0.0 | 0.00 | 0.00 | 0.00 | 95 | 1011.7 |
| 20260902020054 | 77 | 324 | 0.0 | 0.0 | 0.00 | 0.00 | 0.00 | 95 | 1011.5 |
| 20260902014557 | 77 | 323 | 0.0 | 0.0 | 0.00 | 0.00 | 0.00 | 95 | 1011.5 |
| 20260902013055 | 77 | 324 | 0.0 | 0.0 | 0.00 | 0.00 | 0.00 | 95 | 1011.5 |
| 20260902011600 | 77 | 323 | 0.0 | 0.0 | 0.00 | 0.00 | 0.00 | 95 | 1011.3 |
| 20260902010118 | 77 | 323 | 0.0 | 0.0 | 0.00 | 0.00 | 0.00 | 94 | 1011.2 |
| 20260902004557 | 78 | 323 | 0.0 | 0.0 | 0.00 | 0.00 | 0.00 | 94 | 1011.2 |
| 20260902003055 | 78 | 324 | 0.0 | 0.0 | 0.00 | 0.00 | 0.00 | 93 | 1010.9 |
| 20260902001555 | 79 | 324 | 0.0 | 0.0 | 0.00 | 0.00 | 0.00 | 92 | 1011.1 |
| 20260902000055 | 79 | 323 | 0.0 | 0.0 | 0.00 | 0.00 | 0.00 | 90 | 1011.2 |
| 20260901234555 | 80 | 324 | 0.0 | 0.0 | 0.00 | 0.00 | 0.00 | 90 | 1011.3 |
| 20260901233101 | 81 | 323 | 0.0 | 0.0 | 0.00 | 0.00 | 0.00 | 89 | 1011.3 |
| 20260901231557 | 82 | 324 | 0.0 | 0.0 | 0.00 | 0.00 | 0.00 | 86 | 1011.4 |
| 20260901230055 | 83 | 323 | 0.0 | 0.0 | 0.00 | 0.00 | 0.00 | 84 | 1011.5 |